Regional Weather Roundup
Issued by NWS

Home | Current Version | Previous Version | Graphics & Text | Print | Product List | Glossary On
Versions: 1 2 3 4 5 6 7 8 9 10 11 12 13 14 15 16 17 18 19 20 21 22 23 24 25 26 27 28 29 30 31 32 33 34 35 36 37 38 39 40 41 42 43 44 45 46 47 48 49 50
167
ASUS43 KDMX 251008
RWRIA

WEATHER ROUNDUP FOR IOWA
NATIONAL WEATHER SERVICE DES MOINES IA
500 AM CDT WED MAY 25 2016

NOTE: "FAIR" INDICATES FEW OR NO CLOUDS BELOW 12,000 FEET WITH NO
SIGNIFICANT WEATHER AND/OR OBSTRUCTIONS TO VISIBILITY.

* - THESE STATIONS ARE NOT NWS STATIONS...THUS NOT UNDER NWS
QUALITY CONTROL.  THEY ALSO DO NOT REPORT WEATHER SUCH
AS PRECIPITATION OR FOG.

IAZ001>003-012>014-020>022-031>034-043>046-251100-
   NORTHWEST IOWA

CITY           SKY/WX    TMP DP  RH WIND       PRES   REMARKS
CARROLL *      LGT RAIN  66  63  88 CALM      29.86F
CHEROKEE *     LGT RAIN  66  64  94 SE7       29.82F
DENISON *      MOCLDY    63  61  94 SE3       29.81F
LE MARS *      CLOUDY    68  61  77 S14       29.84R
ORANGE CITY *  CLOUDY    66  63  88 SW9       29.84R
SHELDON *      MOCLDY    66  63  88 SE14      29.80F
SIOUX CITY     LGT RAIN  66  59  78 S3        29.82R
SPENCER        CLOUDY    65  61  87 S8        29.84R
STORM LAKE *   CLOUDY    64  63  94 SE9       29.86R
$$

IAZ055>058-069>071-079>083-090>094-251100-
   SOUTHWEST IOWA

CITY           SKY/WX    TMP DP  RH WIND       PRES   REMARKS
ATLANTIC *     PTCLDY    64  64 100 CALM      29.84R
AUDUBON *      DRIZZLE   63  61  94 NE7       29.85F
CLARINDA *       N/A     64  63  94 MISG      29.80F
COUNCIL BLFS * CLOUDY    64  63  94 E8        29.81R
CRESTON *      CLOUDY    66  64  94 SW6       29.85S
HARLAN  *        N/A    N/A N/A N/A MISG        N/A
LAMONI         CLOUDY    65  63  93 S13       29.84F
RED OAK *      MOCLDY    66  63  88 CALM      29.81F
SHENANDOAH *   CLOUDY    64  64 100 E8        29.77F
$$

IAZ047>049-059>061-072>074-084-251100-
   CENTRAL IOWA

CITY           SKY/WX    TMP DP  RH WIND       PRES   REMARKS
AMES           CLOUDY    65  64  97 SE9       29.86R
ANKENY *       MOCLDY    66  66 100 S5        29.87R
BOONE *        MOCLDY    64  64 100 S8        29.87R
CHARITON *     CLOUDY    64  64 100 S9        29.86R
DES MOINES     TSTM      67  63  87 W7        29.90R FOG
GRINNELL*      MOCLDY    64  63  94 SE8       29.90R
KNOXVILLE *      N/A     64  63  94 SE6       29.85S
MARSHALLTOWN   CLOUDY    64  63  96 E9        29.86S
NEWTON *       CLOUDY    64  64 100 SE9       29.87R
PELLA *        CLOUDY    64  63  94 SE5       29.88R
PERRY *        RAIN      66  64  94 S7        29.89R
$$

IAZ004>006-015-016-023>025-035-036-251100-
   NORTH CENTRAL IOWA

CITY           SKY/WX    TMP DP  RH WIND       PRES   REMARKS
ALGONA *       PTCLDY    64  61  88 SE6       29.85R
CLARION *      CLOUDY    66  64  94 SE10      29.85S
ESTHERVILLE    CLOUDY    64  61  90 S9        29.84R
FORT DODGE *   CLOUDY    64  59  82 SE6       29.88R
MASON CITY     CLOUDY    60  59  96 E5        29.88S
FOREST CITY *  CLEAR     61  61 100 E6        29.86S
WEBSTER CITY * PTCLDY    64  64 100 SE8       29.83R
IOWA FALLS *   CLOUDY    64  63  94 E9        29.87F
$$

IAZ007>011-017>019-026>030-037>042-050>054-066-251100-
   NORTHEAST IOWA

CITY           SKY/WX    TMP DP  RH WIND       PRES   REMARKS
CEDAR RAPIDS   PTCLDY    63  63 100 SE5       29.90R
CHARLES CITY * CLEAR     63  63 100 SE8       29.89R
CLINTON *      PTCLDY    61  60  97 E5        29.95R
DECORAH *      CLEAR     64  61  88 SE3       29.90S FOG
DUBUQUE        CLEAR     63  61  93 SE5       29.93F
MONTICELLO *   CLEAR     63  61  94 CALM      29.93R
OELWEIN *      CLEAR     63  63 100 SE8       29.91R
WATERLOO       CLOUDY    64  62  93 SE7       29.88S
$$

IAZ064-065-067-068-078-251100-
   EAST CENTRAL IOWA

CITY           SKY/WX    TMP DP  RH WIND       PRES   REMARKS
DAVENPORT      CLEAR     62  60  93 S6        29.94R
IOWA CITY      CLEAR     63  61  93 SE3       29.93R
MT. PLEASANT * CLOUDY    64  64 100 SE7       29.93R
MUSCATINE *    CLEAR     61  59  94 CALM      29.93R FOG
QUAD CITIES    CLEAR     64  59  83 CALM      29.93R
$$

IAZ062-063-075>077-085>089-095>099-251100-
   SOUTHEAST IOWA

CITY           SKY/WX    TMP DP  RH WIND       PRES   REMARKS
BURLINGTON     MOCLDY    63  63 100 S8        29.93R
FAIRFIELD *      N/A    N/A N/A N/A MISG        N/A
FORT MADISON * PTCLDY    63  63 100 S10       29.94S
KEOKUK *       PTCLDY    64  63  94 S7        29.93S
OSKALOOSA *      N/A     64  63  94 SE10      29.88F
OTTUMWA        MOCLDY    64  62  93 SE9       29.87F
WASHINGTON *   MOCLDY    63  63 100 SE9       29.92F
$$

ABBREVIATIONS USED IN REMARKS
   TC - TEMPERATURES IN CELSIUS
  WCI - WIND CHILL INDEX
   HX - HEAT INDEX
  VSB - VISIBILITY
$$





USA.gov is the U.S. government's official web portal to all federal, state and local government web resources and services.